Location: Newark
(48.9320°N, 2.2664°E)
Time: 21:48:22
(UTC+00:00)

Vanguard 1 Rocket - All Passes

Search period start: 18 February 2020 00:00
Search period end: 28 February 2020 00:00
Orbit: 650 x 4226 km, 34.3° (Epoch: 17 February)

Date Brightness Start Highest point End Pass type
(mag) Time Alt. Az. Time Alt. Az. Time Alt. Az.
18 Feb - 03:20:37 10° S 03:21:39 11° S 03:22:39 10° SSE visible
18 Feb - 05:43:21 10° SSW 05:45:35 14° S 05:47:50 10° SSE visible
19 Feb - 04:32:35 10° SSW 04:35:03 14° S 04:37:21 10° SSE visible
19 Feb - 06:58:05 10° SSW 06:58:55 10° SSW 06:59:46 10° S daylight
20 Feb - 03:21:44 10° SSW 03:24:28 14° S 03:26:51 10° SE visible
20 Feb - 05:46:23 10° SW 05:48:21 13° S 05:50:19 10° SSE visible
21 Feb - 02:10:57 10° SSW 02:13:45 13° S 02:16:08 10° SE night (unlit)
21 Feb - 04:35:05 10° SW 04:37:51 15° S 04:40:22 10° SSE visible
22 Feb - 01:00:48 10° S 01:02:48 11° SSE 01:04:36 10° SSE night (unlit)
22 Feb - 03:23:41 10° SW 03:27:18 16° S 03:30:17 10° SE visible
22 Feb - 05:49:49 10° SSW 05:51:07 11° SSW 05:52:23 10° S visible
23 Feb - 02:12:09 10° SSW 02:16:36 16° S 02:20:02 10° SE night (unlit)
23 Feb - 04:37:46 10° SW 04:40:39 15° S 04:43:12 10° SSE visible
24 Feb - 01:00:41 10° SSW 01:05:40 16° SSE 01:09:28 10° SE night (unlit)
24 Feb - 03:25:55 10° SW 03:30:08 18° S 03:33:27 10° SE visible
24 Feb - 23:49:45 10° S 23:54:27 13° SSE 23:58:13 10° SE night (unlit)
25 Feb - 02:13:53 10° SW 02:19:27 20° S 02:23:28 10° SE night (unlit)
25 Feb - 04:40:38 10° SW 04:43:23 14° SSW 04:45:49 10° SSE visible
25 Feb - 22:41:03 10° SSE 22:42:58 10° SSE 22:44:43 10° SE night (unlit)
26 Feb - 01:01:44 10° SW 01:08:32 20° S 01:13:14 10° SE night (unlit)
26 Feb - 03:28:19 10° SW 03:32:55 19° S 03:36:27 10° SE visible
26 Feb - 23:49:45 10° SSW 23:57:18 19° SSE 00:02:35 10° SE night (unlit)
27 Feb - 02:15:53 10° SW 02:22:17 23° S 02:26:41 10° SE visible
27 Feb - 04:43:44 10° SW 04:46:05 13° SSW 04:48:10 10° S visible
27 Feb - 22:38:26 10° S 22:45:45 16° SSE 22:51:11 10° SE visible
